Regional Weather Roundup
Issued by NWS Cleveland, OH

Home | Current Version | Previous Version | Text Only | Print | Product List | Glossary Off
Versions: 1 2 3 4 5 6 7 8 9 10 11 12 13 14 15 16 17 18 19 20 21 22 23 24 25 26 27 28 29 30 31 32 33 34 35 36 37 38 39 40 41 42 43 44 45 46 47 48 49 50

589
ASUS41 KCLE 091302
RWRCLE
OHIO REGIONAL WEATHER ROUNDUP
NATIONAL WEATHER SERVICE CLEVELAND, OH
800 AM EST TUE FEB 09 2016

NOTE: "FAIR" INDICATES FEW OR NO CLOUDS BELOW 12,000 FEET WITH NO
SIGNIFICANT WEATHER AND/OR OBSTRUCTIONS TO VISIBILITY.

OHZ001>008-015>018-024>027-034-035-043-044-091400-
   NORTHWEST OHIO

CITY           SKY/WX    TMP DP  RH WIND       PRES   REMARKS
DEFIANCE       LGT SNOW  28  24  85 SW9       29.63R FOG     WCI  19
FINDLAY        CLOUDY    28  22  78 W17       29.62R WCI  16
TOLEDO EXPRESS LGT SNOW  27  25  92 SW14      29.60R VSB 3/4 WCI  16
TOLEDO EXEC    LGT SNOW  29  25  85 SW13      29.60S FOG     WCI  19
LIMA           CLOUDY    25  22  88 W16       29.63R WCI  12
$$

OHZ009>014-019>023-028>033-038-089-091400-
   NORTHEAST OHIO

CITY           SKY/WX    TMP DP  RH WIND       PRES   REMARKS
CLE-HOPKINS    CLOUDY    30  26  85 W9        29.59S WCI  22
CLE-LAKEFRONT  CLOUDY    32  28  85 W15       29.57R WCI  22
CUY CO. ARPT   CLOUDY    32  30  93 W12       29.56S WCI  23
LORAIN-ELYRIA  CLOUDY    30  25  81 W14       29.58R WCI  19
ASHTABULA      CLOUDY    32  29  88 W8        29.55R WCI  25
AKRON-CANTON   CLOUDY    30  26  85 W8        29.56R WCI  22
WOOSTER        CLOUDY    29  24  82 W10       29.58R WCI  20
MANSFIELD      CLOUDY    27  24  89 W10       29.58R WCI  17
YOUNGSTOWN     FLURRIES  31  27  85 W9        29.55R WCI  23
$$

OHZ042-051>053-060>062-070>072-077>081-091400-
  SOUTHWEST OHIO

CITY           SKY/WX    TMP DP  RH WIND       PRES   REMARKS
CINC-COVINGTON MOCLDY    19  16  88 SW8       29.74S FOG     WCI   9
CINC-LUNKEN    LGT SNOW  21  18  88 SW10      29.78S FOG     WCI  10
HAMILTON       LGT SNOW  22  19  89 W10       29.76R FOG     WCI  11
DAYTON         LGT SNOW  22  20  92 W14       29.69R FOG     WCI   9
WRIGHT-PAT AFB NOT AVBL
DAYTON GENERAL LGT SNOW  21  17  84 SW10      29.70R VSB 1   WCI  10
WILMINGTON     SNOW      20  17  88 W16       29.69R VSB 1/2 WCI   6
$$

OHZ036-037-039>041-045>050-054>059-063>069-073>076-082>088-091400-
  CENTRAL AND SOUTHEAST OHIO

CITY           SKY/WX    TMP DP  RH WIND       PRES   REMARKS
COLUMBUS       LGT SNOW  23  19  85 SW9       29.66R FOG     WCI  13
OSU AIRPORT    LGT SNOW  25  22  88 W10       29.65R FOG     WCI  15
BOLTON FIELD   LGT SNOW  21  19  93 W13       29.67R WCI   9
RICKENBACK AFB NOT AVBL
NEWARK         LGT SNOW  24  19  81 MISG      29.64R
MARION         CLOUDY    27  21  78 W10       29.63R WCI  17
LANCASTER      LGT SNOW  22  18  85 SW12      29.68R VSB 3/4 WCI  10
ZANESVILLE     SNOW      24  20  84 SW9       29.64R VSB 1/2 WCI  14
NEW PHILLY     FLURRIES  30  26  85 W3        29.60R
$$




USA.gov is the U.S. government's official web portal to all federal, state and local government web resources and services.